Volver al catálogo

STARLINK-30521

ActivoComunicacionesVLEO
NORAD 57966·PAYLOAD·🇺🇸 United States

Lanzado Sep 30, 2023 desde Cape Canaveral Space Force Station

Loading…

Próximos Pases (próximas 24 horas)

TLE

ActualizadoSource: CelesTrak SupGP

Época: Sep 15, 2026, 02:41 UTC

1 57966C 23151C   26258.11229167  .00026657  00000+0  96571-3 0  2581
2 57966  43.0026 346.0333 0001286 267.4943 274.0764 15.27559379    18

Sigue STARLINK-30521 en tiempo real con AllMySat

Download on the App Store